^^
Datos históricos de la estación: Murcia-Puente Tocinos
Diario Informe para Julio 16, 2019 Unidades:  Métrico    Ingés   Ambas
Diario Semanal Mensual Anual
  Máxima: Mínima: Promedio:
Temperatura: 29.2 °C 21.4 °C 24.9 °C
Punto de rocio: 21.7 °C 19.2 °C 20.3 °C
Humedad: 92% 55.6% 77%
Velocidad viento: 16.1km/h 0km/h 6.7km/h
Racha viento: 29.6km/h - -
Viento- - SSE
Presión: 1017.4 hPa 1014.7 hPa -
Precipitación: 0.0 mm    
 
 
Tabla de datos para Julio 16, 2019
Hora Temperatura Punto de rocio Presión Viento Velocidad viento Racha viento Humedad Intensidad lluvia(por hora) Nubes
00:04 23.3 °C 21.6 °C 1016.6 hPa SO 2.9 km/h 7.4 km/h 90% 0.0 mm
00:09 23.3 °C 21.6 °C 1016.6 hPa ONO 2.9 km/h 8 km/h 90% 0.0 mm
00:14 23.2 °C 21.5 °C 1016.6 hPa ONO 3.2 km/h 6.4 km/h 90.3% 0.0 mm
00:19 23.2 °C 21.7 °C 1016.6 hPa ONO 3 km/h   91% 0.0 mm
00:24 23.2 °C 21.7 °C 1016.6 hPa Calm     91% 0.0 mm
00:29 23.1 °C 21.6 °C 1016.5 hPa Calm   3.2 km/h 91% 0.0 mm
00:34 23.1 °C 21.6 °C 1016.7 hPa Calm   5.6 km/h 91% 0.0 mm
00:39 23.1 °C 21.6 °C 1016.7 hPa Calm   4.8 km/h 91% 0.0 mm
00:44 23.1 °C 21.6 °C 1016.7 hPa Calm   4.8 km/h 91% 0.0 mm
00:49 23.1 °C 21.5 °C 1016.9 hPa OSO 0.2 km/h 7.4 km/h 91% 0.0 mm
00:54 22.9 °C 21.4 °C 1016.9 hPa Oeste 2.2 km/h 8 km/h 91% 0.0 mm
00:59 22.9 °C 21.3 °C 1016.9 hPa Oeste 2.4 km/h 6.4 km/h 91% 0.0 mm
01:04 22.9 °C 21.3 °C 1016.9 hPa Oeste 3.2 km/h 3.2 km/h 91% 0.0 mm
01:09 22.8 °C 21.3 °C 1016.8 hPa Oeste 3 km/h   91% 0.0 mm
01:14 22.8 °C 21.3 °C 1016.7 hPa Calm     91% 0.0 mm
01:19 22.8 °C 21.3 °C 1016.7 hPa Calm     91% 0.0 mm
01:24 22.8 °C 21.3 °C 1016.7 hPa Calm     91% 0.0 mm
01:29 22.8 °C 21.3 °C 1016.7 hPa Calm     91% 0.0 mm
01:34 22.8 °C 21.3 °C 1016.7 hPa Calm     91.4% 0.0 mm
01:39 22.8 °C 21.4 °C 1016.7 hPa Calm     92% 0.0 mm
01:44 22.8 °C 21.3 °C 1016.7 hPa Calm   5.6 km/h 91.4% 0.0 mm
01:49 22.8 °C 21.3 °C 1016.7 hPa SSE 0.2 km/h 9.3 km/h 91% 0.0 mm
01:54 22.7 °C 21.1 °C 1016.7 hPa Sur 2.9 km/h 9.7 km/h 91% 0.0 mm
01:59 22.5 °C 20.9 °C 1016.7 hPa Sur 3.2 km/h 9.7 km/h 91% 0.0 mm
02:04 22.3 °C 20.8 °C 1016.7 hPa SSO 5.8 km/h 9.7 km/h 91% 0.0 mm
02:09 22.3 °C 20.8 °C 1016.7 hPa SSO 5.8 km/h 9.7 km/h 91% 0.0 mm
02:14 22.3 °C 20.8 °C 1016.7 hPa SSO 5.8 km/h 10 km/h 91% 0.0 mm
02:19 22.4 °C 20.8 °C 1016.7 hPa SO 5.7 km/h 9.7 km/h 91% 0.0 mm
02:24 22.4 °C 20.8 °C 1016.7 hPa SSO 5 km/h 8.4 km/h 91% 0.0 mm
02:29 22.5 °C 20.9 °C 1016.6 hPa SSO 5 km/h 9.3 km/h 90.8% 0.0 mm
02:34 22.6 °C 20.8 °C 1016.6 hPa SSO 5 km/h 9.7 km/h 90% 0.0 mm
02:39 22.6 °C 20.9 °C 1016.5 hPa SO 5.1 km/h 11.1 km/h 90% 0.0 mm
02:44 22.6 °C 20.9 °C 1016.4 hPa SO 6.4 km/h 11.3 km/h 90% 0.0 mm
02:49 22.6 °C 20.9 °C 1016.4 hPa SO 6.5 km/h 11.1 km/h 90% 0.0 mm
02:54 22.6 °C 20.9 °C 1016.4 hPa SO 6.9 km/h 11.3 km/h 90% 0.0 mm
02:59 22.6 °C 20.7 °C 1016.4 hPa SSO 7 km/h 16.7 km/h 89.1% 0.0 mm
03:04 22.6 °C 20.7 °C 1016.4 hPa SSO 7.6 km/h 16.1 km/h 89% 0.0 mm
03:09 22.6 °C 20.6 °C 1016.4 hPa SO 7.6 km/h 16.1 km/h 88.3% 0.0 mm
03:14 22.6 °C 20.5 °C 1016.3 hPa SO 8.4 km/h 13 km/h 88% 0.0 mm
03:19 22.6 °C 20.5 °C 1016.3 hPa SO 8.3 km/h 12.9 km/h 88% 0.0 mm
03:24 22.6 °C 20.5 °C 1016.2 hPa SO 7.6 km/h 13 km/h 88% 0.0 mm
03:29 22.6 °C 20.5 °C 1016.1 hPa SO 7.5 km/h 12.9 km/h 88% 0.0 mm
03:34 22.5 °C 20.4 °C 1016.1 hPa SO 6.9 km/h 11.3 km/h 88% 0.0 mm
03:39 22.4 °C 20.4 °C 1016.0 hPa OSO 6.9 km/h 10 km/h 88.2% 0.0 mm
03:44 22.4 °C 20.5 °C 1016.0 hPa OSO 5.8 km/h 9.7 km/h 89% 0.0 mm
03:49 22.3 °C 20.4 °C 1016.0 hPa OSO 5.7 km/h 9.7 km/h 89% 0.0 mm
03:54 22.3 °C 20.3 °C 1016.0 hPa SO 5 km/h 8.4 km/h 89% 0.0 mm
03:59 22.2 °C 20.3 °C 1015.9 hPa SO 5 km/h 10 km/h 89.2% 0.0 mm
04:04 22.2 °C 20.4 °C 1015.9 hPa SO 5 km/h 9.7 km/h 90% 0.0 mm
04:09 22.1 °C 20.4 °C 1015.9 hPa SO 5 km/h 8.4 km/h 90% 0.0 mm
04:14 22.1 °C 20.4 °C 1015.8 hPa SO 5 km/h 10.3 km/h 90% 0.0 mm
04:19 22 °C 20.3 °C 1015.8 hPa SSO 5.1 km/h 11.3 km/h 90% 0.0 mm
04:24 22 °C 20.3 °C 1015.7 hPa SSO 5.8 km/h 9.5 km/h 90.5% 0.0 mm
04:29 21.9 °C 20.4 °C 1015.6 hPa SSO 5.8 km/h 10 km/h 91% 0.0 mm
04:34 21.9 °C 20.4 °C 1015.6 hPa SO 5.8 km/h 9.7 km/h 91% 0.0 mm
04:39 21.8 °C 20.3 °C 1015.5 hPa SSO 5.8 km/h 9.5 km/h 91% 0.0 mm
04:44 21.8 °C 20.3 °C 1015.4 hPa SSO 5.8 km/h 9.7 km/h 91% 0.0 mm
04:49 21.7 °C 20.2 °C 1015.6 hPa SSO 5.8 km/h 9.7 km/h 91% 0.0 mm
04:54 21.7 °C 20.2 °C 1015.6 hPa SSO 5.8 km/h 11.1 km/h 91% 0.0 mm
04:59 21.7 °C 20.2 °C 1015.6 hPa SSO 5.7 km/h 11.3 km/h 91% 0.0 mm
05:04 21.7 °C 20.2 °C 1015.6 hPa SSO 5 km/h 9.7 km/h 91% 0.0 mm
05:09 21.6 °C 20.1 °C 1015.6 hPa SO 5 km/h 9.7 km/h 91% 0.0 mm
05:14 21.6 °C 20.1 °C 1015.6 hPa SO 5.8 km/h 9.7 km/h 91% 0.0 mm
05:19 21.6 °C 20 °C 1015.6 hPa SSO 5.8 km/h 11.1 km/h 91% 0.0 mm
05:24 21.5 °C 19.9 °C 1015.6 hPa SO 5.8 km/h 11.3 km/h 91% 0.0 mm
05:29 21.5 °C 19.9 °C 1015.6 hPa SO 5.8 km/h 11.1 km/h 91% 0.0 mm
05:34 21.5 °C 19.9 °C 1015.6 hPa SO 6.4 km/h 11.3 km/h 91% 0.0 mm
05:39 21.4 °C 19.9 °C 1015.5 hPa SO 6.4 km/h 9.7 km/h 91% 0.0 mm
05:44 21.5 °C 19.9 °C 1015.5 hPa SO 5 km/h 9.5 km/h 91% 0.0 mm
05:49 21.5 °C 19.9 °C 1015.6 hPa SO 5.1 km/h 9.7 km/h 91% 0.0 mm
05:54 21.5 °C 19.9 °C 1015.6 hPa SO 6.4 km/h 11.1 km/h 91% 0.0 mm
05:59 21.5 °C 19.9 °C 1015.6 hPa SSO 6.5 km/h 11.3 km/h 91% 0.0 mm
06:04 21.5 °C 19.9 °C 1015.6 hPa SSO 6.5 km/h 11.3 km/h 91% 0.0 mm
06:09 21.5 °C 19.9 °C 1015.6 hPa SSO 6.4 km/h 9.7 km/h 90.5% 0.0 mm
06:14 21.6 °C 19.9 °C 1015.6 hPa SO 5.8 km/h 9.7 km/h 90% 0.0 mm
06:19 21.6 °C 19.9 °C 1015.6 hPa SO 5.7 km/h 9.7 km/h 90% 0.0 mm
06:24 21.6 °C 19.8 °C 1015.5 hPa OSO 5 km/h 8 km/h 89.5% 0.0 mm
06:29 21.6 °C 19.7 °C 1015.5 hPa SO 5 km/h 11.9 km/h 89% 0.0 mm
06:34 21.7 °C 19.8 °C 1015.5 hPa SO 5.8 km/h 11.3 km/h 89% 0.0 mm
06:39 21.7 °C 19.8 °C 1015.4 hPa SO 5.9 km/h 11.3 km/h 89% 0.0 mm
06:44 21.7 °C 19.8 °C 1015.4 hPa SO 6.9 km/h 11.3 km/h 88.5% 0.0 mm
06:49 21.8 °C 19.7 °C 1015.5 hPa SO 6.9 km/h 11.1 km/h 88% 0.0 mm
06:54 21.8 °C 19.7 °C 1015.5 hPa SO 6.9 km/h 11.3 km/h 88% 0.0 mm
06:59 21.8 °C 19.6 °C 1015.5 hPa SO 7 km/h 11.9 km/h 87.4% 0.0 mm
07:04 21.8 °C 19.6 °C 1015.6 hPa OSO 7.6 km/h 11.3 km/h 87% 0.0 mm
07:09 21.8 °C 19.6 °C 1015.6 hPa SO 7.5 km/h 11.3 km/h 87% 0.0 mm
07:14 21.8 °C 19.6 °C 1015.6 hPa SO 6.9 km/h 11.3 km/h 87% 0.0 mm
07:19 21.8 °C 19.6 °C 1015.8 hPa SSO 6.8 km/h 9.7 km/h 87% 0.0 mm
07:24 21.8 °C 19.6 °C 1015.8 hPa SO 5 km/h 8 km/h 87% 0.0 mm
07:29 21.8 °C 19.6 °C 1015.8 hPa SO 4.8 km/h 8 km/h 87% 0.0 mm
07:34 21.7 °C 19.5 °C 1016.0 hPa SSO 3.2 km/h 8 km/h 87% 0.0 mm
07:39 21.7 °C 19.4 °C 1016.0 hPa SO 3.3 km/h 9.3 km/h 87% 0.0 mm
07:44 21.7 °C 19.5 °C 1016.0 hPa SO 3.9 km/h 9.7 km/h 87.8% 0.0 mm
07:49 21.6 °C 19.5 °C 1016.1 hPa SO 4 km/h 10 km/h 88% 0.0 mm
07:54 21.6 °C 19.5 °C 1016.1 hPa SO 5.8 km/h 9.7 km/h 88% 0.0 mm
07:59 21.5 °C 19.4 °C 1016.1 hPa SO 5.6 km/h 9.5 km/h 88% 0.0 mm
08:04 21.5 °C 19.4 °C 1016.2 hPa SO 4.7 km/h 9.7 km/h 88% 0.0 mm
08:09 21.5 °C 19.4 °C 1016.2 hPa OSO 4.7 km/h 9.7 km/h 88% 0.0 mm
08:14 21.5 °C 19.4 °C 1016.2 hPa OSO 5 km/h 8.4 km/h 88% 0.0 mm
08:19 21.5 °C 19.5 °C 1016.4 hPa Oeste 4.9 km/h 8 km/h 88% 0.0 mm
08:24 21.5 °C 19.4 °C 1016.4 hPa OSO 3.9 km/h 8 km/h 88% 0.0 mm
08:29 21.5 °C 19.4 °C 1016.4 hPa OSO 3.9 km/h 7.4 km/h 88% 0.0 mm
08:34 21.4 °C 19.3 °C 1016.5 hPa SO 3.9 km/h 8.4 km/h 88% 0.0 mm
08:39 21.5 °C 19.4 °C 1016.5 hPa SO 3.8 km/h 8 km/h 88% 0.0 mm
08:44 21.6 °C 19.5 °C 1016.5 hPa SSO 3.2 km/h 6.4 km/h 88% 0.0 mm
08:49 21.7 °C 19.5 °C 1016.6 hPa SO 3.2 km/h 8 km/h 87.6% 0.0 mm
08:54 21.8 °C 19.6 °C 1016.6 hPa OSO 3.2 km/h 8 km/h 87% 0.0 mm
08:59 22 °C 19.5 °C 1016.6 hPa OSO 3.4 km/h 8 km/h 86.1% 0.0 mm
09:04 22.1 °C 19.6 °C 1016.6 hPa OSO 4.7 km/h 10 km/h 85.6% 0.0 mm
09:09 22.2 °C 19.6 °C 1016.6 hPa SO 4.8 km/h 10.3 km/h 85% 0.0 mm
09:14 22.4 °C 19.7 °C 1016.5 hPa SO 6.4 km/h 11.3 km/h 85% 0.0 mm
09:19 22.5 °C 19.8 °C 1016.7 hPa SO 6.4 km/h 11.3 km/h 84.6% 0.0 mm
09:24 22.7 °C 19.7 °C 1016.7 hPa OSO 5.8 km/h 11.3 km/h 83.4% 0.0 mm
09:29 22.8 °C 19.7 °C 1016.7 hPa SO 5.8 km/h 11.3 km/h 82.6% 0.0 mm
09:34 22.9 °C 19.6 °C 1016.9 hPa SO 5.8 km/h 9.7 km/h 82% 0.0 mm
09:39 23 °C 19.6 °C 1016.9 hPa SO 5.8 km/h 11.1 km/h 81.3% 0.0 mm
09:44 23.2 °C 19.7 °C 1016.9 hPa SO 6.4 km/h 11.9 km/h 80.9% 0.0 mm
09:49 23.3 °C 19.6 °C 1017.0 hPa OSO 6.5 km/h 11.9 km/h 80% 0.0 mm
09:54 23.3 °C 19.7 °C 1017.0 hPa OSO 6.5 km/h 11.3 km/h 80% 0.0 mm
09:59 23.5 °C 19.7 °C 1017.0 hPa SO 6.5 km/h 11.9 km/h 79.2% 0.0 mm
10:04 23.6 °C 19.7 °C 1017.1 hPa OSO 6.9 km/h 13 km/h 79% 0.0 mm
10:09 23.6 °C 19.7 °C 1017.1 hPa SO 7 km/h 12.9 km/h 79% 0.0 mm
10:14 23.6 °C 19.8 °C 1017.1 hPa SO 7.6 km/h 11.3 km/h 79% 0.0 mm
10:19 23.7 °C 19.9 °C 1017.2 hPa SSO 7.5 km/h 11.3 km/h 79% 0.0 mm
10:24 23.8 °C 19.9 °C 1017.2 hPa SSO 6.5 km/h 11.3 km/h 78.9% 0.0 mm
10:29 23.9 °C 19.9 °C 1017.2 hPa SSO 6.3 km/h 9.7 km/h 78.4% 0.0 mm
10:34 24.1 °C 20 °C 1017.3 hPa SSO 5 km/h 10 km/h 78.3% 0.0 mm
10:39 24.2 °C 20.1 °C 1017.3 hPa SSO 5.1 km/h 9.7 km/h 77.8% 0.0 mm
10:44 24.3 °C 20 °C 1017.3 hPa SO 5.8 km/h 9.7 km/h 77% 0.0 mm
10:49 24.4 °C 20 °C 1017.3 hPa SO 5.8 km/h 11.1 km/h 76.3% 0.0 mm
10:54 24.6 °C 20 °C 1017.3 hPa SSO 5.8 km/h 11.9 km/h 75.9% 0.0 mm
10:59 24.7 °C 20 °C 1017.3 hPa SO 6 km/h 14.8 km/h 75.5% 0.0 mm
11:04 24.7 °C 20 °C 1017.3 hPa SSO 7.5 km/h 14.5 km/h 75% 0.0 mm
11:09 24.8 °C 20 °C 1017.3 hPa Sur 7.6 km/h 13 km/h 74.8% 0.0 mm
11:14 25 °C 20.1 °C 1017.3 hPa SSE 7.6 km/h 14.8 km/h 74.1% 0.0 mm
11:19 25.2 °C 20.1 °C 1017.4 hPa Sur 7.6 km/h 14.5 km/h 73.4% 0.0 mm
11:24 25.4 °C 20.1 °C 1017.4 hPa SSO 7.6 km/h 13 km/h 72.7% 0.0 mm
11:29 25.5 °C 20.1 °C 1017.4 hPa SSO 7.4 km/h 12.9 km/h 72.3% 0.0 mm
11:34 25.7 °C 20.2 °C 1017.4 hPa OSO 4.7 km/h 9.3 km/h 71.5% 0.0 mm
11:39 25.8 °C 20.2 °C 1017.3 hPa Sur 4.7 km/h 9.7 km/h 71.2% 0.0 mm
11:44 26.1 °C 20.3 °C 1017.3 hPa SE 4.7 km/h 9.7 km/h 70.4% 0.0 mm
11:49 26.3 °C 20.3 °C 1017.3 hPa ESE 4.7 km/h 11.1 km/h 69.4% 0.0 mm
11:54 26.4 °C 20.3 °C 1017.2 hPa SSE 5 km/h 11.9 km/h 69% 0.0 mm
11:59 26.5 °C 20 °C 1017.2 hPa SSE 5.1 km/h 12.2 km/h 67.8% 0.0 mm
12:04 26.4 °C 19.9 °C 1017.2 hPa SE 5.8 km/h 12.9 km/h 67.2% 0.0 mm
12:09 26.7 °C 20 °C 1017.2 hPa SSE 5.7 km/h 11.3 km/h 67% 0.0 mm
12:14 26.8 °C 20.1 °C 1017.2 hPa ESE 4.7 km/h 10 km/h 66.5% 0.0 mm
12:19 27.1 °C 20.1 °C 1017.2 hPa ENE 4.5 km/h 9.7 km/h 65.9% 0.0 mm
12:24 27.3 °C 19.9 °C 1017.2 hPa SO 3.2 km/h 11.1 km/h 64.2% 0.0 mm
12:29 27.2 °C 19.8 °C 1017.1 hPa Sur 3.4 km/h 11.3 km/h 64% 0.0 mm
12:34 27.2 °C 19.7 °C 1017.1 hPa Este 5 km/h 9.7 km/h 63.5% 0.0 mm
12:39 27.2 °C 19.9 °C 1017.1 hPa SE 5 km/h 9.7 km/h 64.4% 0.0 mm
12:44 27.3 °C 20 °C 1017.1 hPa SO 5 km/h 8 km/h 64.1% 0.0 mm
12:49 27.5 °C 20.1 °C 1017.1 hPa ESE 4.9 km/h 9.5 km/h 63.9% 0.0 mm
12:54 27.7 °C 20.1 °C 1017.1 hPa ENE 3.9 km/h 9.7 km/h 63.2% 0.0 mm
12:59 27.8 °C 19.9 °C 1017.0 hPa North 3.9 km/h 8.4 km/h 62% 0.0 mm
13:04 28.1 °C 19.9 °C 1017.0 hPa NO 3.9 km/h 9.5 km/h 61% 0.0 mm
13:09 28 °C 19.6 °C 1016.9 hPa NNO 4 km/h 10 km/h 60.1% 0.0 mm
13:14 27.8 °C 19.4 °C 1016.8 hPa OSO 6.4 km/h 11.1 km/h 60.3% 0.0 mm
13:19 27.9 °C 19.5 °C 1016.8 hPa OSO 6.4 km/h 11.9 km/h 60.3% 0.0 mm
13:24 27.9 °C 19.2 °C 1016.8 hPa Oeste 5.8 km/h 11.3 km/h 59.1% 0.0 mm
13:29 28.1 °C 19.5 °C 1016.7 hPa North 5.7 km/h 11.9 km/h 59.6% 0.0 mm
13:34 28.3 °C 19.4 °C 1016.7 hPa SE 5 km/h 14.8 km/h 58.7% 0.0 mm
13:39 28.4 °C 19.3 °C 1016.7 hPa SE 5.1 km/h 14.5 km/h 57.8% 0.0 mm
13:44 28.5 °C 19.3 °C 1016.6 hPa Sur 6.9 km/h 9.7 km/h 57.5% 0.0 mm
13:49 28.7 °C 19.3 °C 1016.6 hPa NO 6.7 km/h 9.7 km/h 57.2% 0.0 mm
13:54 28.8 °C 19.4 °C 1016.6 hPa SE 3.9 km/h 11.1 km/h 56.9% 0.0 mm
13:59 28.8 °C 19.3 °C 1016.5 hPa Sur 4.2 km/h 11.9 km/h 56.5% 0.0 mm
14:04 28.7 °C 19.4 °C 1016.5 hPa Sur 6.4 km/h 13 km/h 57% 0.0 mm
14:09 28.7 °C 19.5 °C 1016.5 hPa Este 6.6 km/h 20.4 km/h 57.3% 0.0 mm
14:14 28.7 °C 19.6 °C 1016.4 hPa SE 8.4 km/h 20.9 km/h 58.3% 0.0 mm
14:19 28.6 °C 19.9 °C 1016.4 hPa SSE 8.5 km/h 19.3 km/h 59.3% 0.0 mm
14:24 28.7 °C 20.1 °C 1016.4 hPa SE 10.3 km/h 20.9 km/h 59.7% 0.0 mm
14:29 28.8 °C 20.1 °C 1016.3 hPa SSE 10.4 km/h 20.9 km/h 59.7% 0.0 mm
14:34 28.8 °C 20.3 °C 1016.3 hPa ESE 11.1 km/h 19 km/h 60.1% 0.0 mm
14:39 28.7 °C 20.3 °C 1016.3 hPa ESE 11.1 km/h 24.1 km/h 60.5% 0.0 mm
14:44 28.6 °C 20.1 °C 1016.2 hPa ESE 11.1 km/h 24.1 km/h 60.1% 0.0 mm
14:49 28.5 °C 20.2 °C 1016.2 hPa ESE 11.1 km/h 24.1 km/h 60.9% 0.0 mm
14:54 28.7 °C 20.1 °C 1016.1 hPa Este 10.3 km/h 12.2 km/h 60% 0.0 mm
14:59 28.8 °C 20 °C 1016.0 hPa ESE 10 km/h 16.4 km/h 59.1% 0.0 mm
15:04 28.8 °C 20 °C 1016.0 hPa ESE 7.6 km/h 22.2 km/h 59% 0.0 mm
15:09 28.8 °C 19.8 °C 1015.9 hPa ESE 7.9 km/h 22.5 km/h 58.3% 0.0 mm
15:14 28.9 °C 19.8 °C 1015.8 hPa ESE 11.1 km/h 19.3 km/h 58% 0.0 mm
15:19 29 °C 19.7 °C 1015.8 hPa Este 11 km/h 16.1 km/h 57.5% 0.0 mm
15:24 29.2 °C 19.5 °C 1015.8 hPa ESE 9.5 km/h 18.5 km/h 56.2% 0.0 mm
15:29 29 °C 19.2 °C 1015.7 hPa ESE 9.5 km/h 19.3 km/h 55.6% 0.0 mm
15:34 29 °C 19.5 °C 1015.7 hPa ESE 10 km/h 16.7 km/h 56.7% 0.0 mm
15:39 29.1 °C 19.6 °C 1015.6 hPa ESE 9.8 km/h 20.4 km/h 56.6% 0.0 mm
15:44 29 °C 20.4 °C 1015.5 hPa ESE 8.4 km/h 24.5 km/h 59.9% 0.0 mm
15:49 28.7 °C 20.4 °C 1015.5 hPa ESE 8.8 km/h 24.1 km/h 60.9% 0.0 mm
15:54 28.6 °C 20.4 °C 1015.4 hPa SE 14 km/h 22.2 km/h 61.1% 0.0 mm
15:59 28.7 °C 20.6 °C 1015.4 hPa ESE 14.1 km/h 29.6 km/h 61.7% 0.0 mm
16:04 28.7 °C 20.7 °C 1015.4 hPa SE 14.8 km/h 29 km/h 61.7% 0.0 mm
16:09 28.7 °C 20.8 °C 1015.3 hPa ESE 14.8 km/h 25.9 km/h 62.4% 0.0 mm
16:14 28.7 °C 20.8 °C 1015.3 hPa SE 14.8 km/h 25.7 km/h 62.4% 0.0 mm
16:19 28.6 °C 20.8 °C 1015.3 hPa SE 14.9 km/h 27.8 km/h 62.5% 0.0 mm
16:24 28.5 °C 20.8 °C 1015.2 hPa SE 15.6 km/h 27.4 km/h 63.1% 0.0 mm
16:29 28.4 °C 20.6 °C 1015.2 hPa SE 15.4 km/h 22.5 km/h 62.9% 0.0 mm
16:34 28.4 °C 20.5 °C 1015.2 hPa ESE 13.1 km/h 24.1 km/h 62.5% 0.0 mm
16:39 28.5 °C 20.8 °C 1015.2 hPa ESE 13.2 km/h 24.5 km/h 63% 0.0 mm
16:44 28.6 °C 20.9 °C 1015.1 hPa SE 14.8 km/h 24.1 km/h 63% 0.0 mm
16:49 28.6 °C 20.9 °C 1015.1 hPa SE 14.7 km/h 24.1 km/h 63% 0.0 mm
16:54 28.6 °C 20.9 °C 1015.0 hPa ESE 13.7 km/h 25.9 km/h 63.1% 0.0 mm
16:59 28.6 °C 21 °C 1015.0 hPa ESE 14 km/h 29.6 km/h 63.7% 0.0 mm
17:04 28.6 °C 21.1 °C 1015.0 hPa SE 16.1 km/h 29 km/h 64% 0.0 mm
17:09 28.7 °C 21.1 °C 1015.0 hPa SE 15.9 km/h 24.5 km/h 63.5% 0.0 mm
17:14 28.4 °C 20.7 °C 1014.9 hPa SE 13.7 km/h 26.2 km/h 62.8% 0.0 mm
17:19 28.4 °C 20.8 °C 1014.9 hPa SE 13.9 km/h 25.9 km/h 63.4% 0.0 mm
17:24 28.4 °C 20.9 °C 1014.9 hPa SE 16.1 km/h 25.7 km/h 63.7% 0.0 mm
17:29 28.4 °C 20.7 °C 1014.8 hPa SE 15.9 km/h 25.1 km/h 63.2% 0.0 mm
17:34 28.5 °C 20.5 °C 1014.8 hPa SE 13.7 km/h 25.7 km/h 62.1% 0.0 mm
17:39 28.4 °C 20.5 °C 1014.8 hPa SE 13.7 km/h 24.1 km/h 62.3% 0.0 mm
17:44 28.4 °C 20.5 °C 1014.8 hPa SE 13.7 km/h 24.1 km/h 62.2% 0.0 mm
17:49 28.3 °C 20.6 °C 1014.8 hPa SE 13.7 km/h 22.5 km/h 62.7% 0.0 mm
17:54 28.3 °C 20.6 °C 1014.8 hPa SE 14 km/h 22.5 km/h 63% 0.0 mm
17:59 28.3 °C 20.6 °C 1014.8 hPa SE 13.9 km/h 22.5 km/h 63% 0.0 mm
18:04 28.4 °C 20.6 °C 1014.8 hPa SSE 13 km/h 20.9 km/h 63% 0.0 mm
18:09 28.3 °C 20.6 °C 1014.8 hPa SE 13 km/h 20.9 km/h 63% 0.0 mm
18:14 28.3 °C 20.5 °C 1014.7 hPa SE 12.2 km/h 29.6 km/h 62.6% 0.0 mm
18:19 28.2 °C 20.5 °C 1014.7 hPa SE 12.4 km/h 29 km/h 62.9% 0.0 mm
18:24 28.2 °C 20.4 °C 1014.7 hPa SE 14.8 km/h 22.5 km/h 62.4% 0.0 mm
18:29 28.2 °C 20.2 °C 1014.7 hPa SE 14.6 km/h 22.5 km/h 62% 0.0 mm
18:34 28.2 °C 20.2 °C 1014.8 hPa SE 13.1 km/h 20.9 km/h 62.2% 0.0 mm
18:39 28.1 °C 20.4 °C 1014.8 hPa SE 13 km/h 22.2 km/h 62.9% 0.0 mm
18:44 28.1 °C 20.4 °C 1014.8 hPa SE 12.2 km/h 22.5 km/h 63% 0.0 mm
18:49 28.1 °C 20.4 °C 1014.8 hPa SE 12 km/h 19.3 km/h 63% 0.0 mm
18:54 28.1 °C 20.4 °C 1014.8 hPa SE 9.5 km/h 17.2 km/h 63% 0.0 mm
18:59 28.1 °C 20.4 °C 1014.8 hPa SE 9.5 km/h 17.7 km/h 63.1% 0.0 mm
19:04 28 °C 20.3 °C 1014.8 hPa SE 9.5 km/h 16.1 km/h 63% 0.0 mm
19:09 27.9 °C 20.3 °C 1014.8 hPa SE 9.5 km/h 14.5 km/h 63.2% 0.0 mm
19:14 27.9 °C 20.2 °C 1014.8 hPa SE 9.5 km/h 14.5 km/h 62.8% 0.0 mm
19:19 27.8 °C 20.1 °C 1014.9 hPa SE 9.4 km/h 13.7 km/h 62.9% 0.0 mm
19:24 27.8 °C 20.1 °C 1014.9 hPa SE 8.4 km/h 17.2 km/h 63% 0.0 mm
19:29 27.7 °C 20.1 °C 1014.9 hPa SE 8.4 km/h 17.7 km/h 63.4% 0.0 mm
19:34 27.7 °C 20.2 °C 1014.9 hPa SE 8.4 km/h 13 km/h 63.7% 0.0 mm
19:39 27.7 °C 20.2 °C 1014.9 hPa SE 8.3 km/h 12.9 km/h 64% 0.0 mm
19:44 27.6 °C 20.2 °C 1014.8 hPa SE 7.6 km/h 13 km/h 64.2% 0.0 mm
19:49 27.6 °C 20.4 °C 1014.8 hPa ESE 7.6 km/h 12.9 km/h 65% 0.0 mm
19:54 27.4 °C 20.3 °C 1014.8 hPa ESE 7.6 km/h 13 km/h 65.3% 0.0 mm
19:59 27.3 °C 20.4 °C 1014.8 hPa ESE 7.5 km/h 11.3 km/h 66% 0.0 mm
20:04 27.2 °C 20.5 °C 1015.0 hPa ESE 6.9 km/h 9.7 km/h 67% 0.0 mm
20:09 27.1 °C 20.6 °C 1015.0 hPa ESE 6.8 km/h 9.7 km/h 67.8% 0.0 mm
20:14 27 °C 20.6 °C 1015.0 hPa ESE 4.7 km/h 8.4 km/h 68% 0.0 mm
20:19 26.9 °C 20.5 °C 1015.0 hPa SE 4.7 km/h 8 km/h 68% 0.0 mm
20:24 26.9 °C 20.5 °C 1015.0 hPa ESE 4.7 km/h 8.7 km/h 68% 0.0 mm
20:29 26.8 °C 20.4 °C 1014.9 hPa ESE 4.7 km/h 9.7 km/h 68% 0.0 mm
20:34 26.8 °C 20.4 °C 1015.0 hPa ESE 5.8 km/h 8 km/h 68.1% 0.0 mm
20:39 26.7 °C 20.4 °C 1015.0 hPa Este 5.6 km/h 8 km/h 68.6% 0.0 mm
20:44 26.6 °C 20.4 °C 1015.0 hPa Este 3.2 km/h 8 km/h 69% 0.0 mm
20:49 26.4 °C 20.4 °C 1015.2 hPa ENE 3.2 km/h 8 km/h 69.3% 0.0 mm
20:54 26.3 °C 20.4 °C 1015.2 hPa Este 3.2 km/h 9.5 km/h 70% 0.0 mm
20:59 26.3 °C 20.4 °C 1015.2 hPa Este 3.4 km/h 9.7 km/h 70% 0.0 mm
21:04 26.2 °C 20.5 °C 1015.3 hPa Este 5 km/h 8 km/h 70.9% 0.0 mm
21:09 26.1 °C 20.4 °C 1015.3 hPa ENE 5 km/h 9.5 km/h 71% 0.0 mm
21:14 26 °C 20.4 °C 1015.3 hPa ESE 4.7 km/h 10 km/h 71.3% 0.0 mm
21:19 25.9 °C 20.4 °C 1015.4 hPa ESE 4.8 km/h 10 km/h 72% 0.0 mm
21:24 25.8 °C 20.4 °C 1015.4 hPa ESE 5.8 km/h 10.3 km/h 72.2% 0.0 mm
21:29 25.8 °C 20.6 °C 1015.4 hPa ESE 5.8 km/h 11.3 km/h 73% 0.0 mm
21:34 25.7 °C 20.5 °C 1015.7 hPa Este 5.8 km/h 9.7 km/h 73% 0.0 mm
21:39 25.7 °C 20.5 °C 1015.7 hPa ENE 5.6 km/h 10 km/h 73.2% 0.0 mm
21:44 25.6 °C 20.6 °C 1015.7 hPa NE 3.9 km/h 11.1 km/h 74% 0.0 mm
21:49 25.4 °C 20.5 °C 1016.0 hPa NE 4.1 km/h 11.3 km/h 74% 0.0 mm
21:54 25.4 °C 20.5 °C 1016.0 hPa NE 6.4 km/h 9.7 km/h 74.4% 0.0 mm
21:59 25.3 °C 20.8 °C 1016.0 hPa NE 6.4 km/h 11.1 km/h 75.9% 0.0 mm
22:04 25.2 °C 20.8 °C 1016.0 hPa NE 5.8 km/h 11.3 km/h 77% 0.0 mm
22:09 25 °C 20.9 °C 1016.0 hPa NNE 5.6 km/h 8 km/h 77.6% 0.0 mm
22:14 24.9 °C 21 °C 1015.9 hPa North 3.9 km/h 10 km/h 78.6% 0.0 mm
22:19 24.8 °C 21.1 °C 1015.9 hPa NE 4 km/h 13 km/h 80.2% 0.0 mm
22:24 24.5 °C 21.1 °C 1015.9 hPa NNE 5.8 km/h 12.9 km/h 81.5% 0.0 mm
22:29 24.3 °C 21.1 °C 1015.8 hPa NNE 5.7 km/h 11.3 km/h 82.4% 0.0 mm
22:34 24.2 °C 21.1 °C 1016.0 hPa NNE 4.7 km/h 8 km/h 83% 0.0 mm
22:39 24.1 °C 21.2 °C 1016.0 hPa North 4.7 km/h 11.1 km/h 84% 0.0 mm
22:44 24 °C 21.2 °C 1016.0 hPa NNE 4.7 km/h 11.3 km/h 84.3% 0.0 mm
22:49 23.9 °C 21.2 °C 1016.0 hPa NNE 4.7 km/h 9.7 km/h 85% 0.0 mm
22:54 23.9 °C 21.2 °C 1016.0 hPa NNE 4.7 km/h 10 km/h 85% 0.0 mm
22:59 23.8 °C 21.2 °C 1016.0 hPa NNE 4.7 km/h 9.7 km/h 85.2% 0.0 mm
23:04 23.8 °C 21.3 °C 1016.1 hPa NNE 4.7 km/h 10 km/h 86% 0.0 mm
23:09 23.7 °C 21.2 °C 1016.1 hPa NNE 4.7 km/h 9.7 km/h 86% 0.0 mm
23:14 23.7 °C 21.2 °C 1016.1 hPa NE 5 km/h 9.5 km/h 86% 0.0 mm
23:19 23.6 °C 21.1 °C 1016.1 hPa NE 5.1 km/h 10 km/h 86% 0.0 mm
23:24 23.6 °C 21.2 °C 1016.1 hPa NE 5.8 km/h 9.7 km/h 86.6% 0.0 mm
23:29 23.6 °C 21.3 °C 1016.1 hPa NE 5.7 km/h 8 km/h 87% 0.0 mm
23:34 23.5 °C 21.2 °C 1016.2 hPa NE 4.7 km/h 8 km/h 87% 0.0 mm
23:39 23.4 °C 21.1 °C 1016.2 hPa NE 4.7 km/h 8 km/h 87% 0.0 mm
23:44 23.4 °C 21.1 °C 1016.2 hPa NNE 5 km/h 8.4 km/h 87% 0.0 mm
23:49 23.4 °C 21.3 °C 1016.2 hPa NNE 5.1 km/h 10 km/h 87.9% 0.0 mm
23:54 23.3 °C 21.2 °C 1016.2 hPa NE 5.8 km/h 10 km/h 88% 0.0 mm
23:59 23.3 °C 21.2 °C 1016.2 hPa NE 5.8 km/h 9.7 km/h 88% 0.0 mm
Murcia-Puente Tocinos, España
Compliments of Weather Underground - 3 mb

La estación de MeteoMurcia.com, publica sus datos en los siguientes proyectos:

Weather Underground PWS IMURCIAP2 Meteoclimatic www.awekas.at

W3Counter
Web Analytics